Regional Weather Roundup
Issued by NWS Pendleton, OR

Home | Current Version | Previous Version | Text Only | Print | Product List | Glossary On
Versions: 1 2 3 4 5 6 7 8 9 10 11 12 13 14 15 16 17 18 19 20 21 22 23 24 25 26 27 28 29 30 31 32 33 34 35 36 37 38 39 40 41 42 43 44 45 46 47 48 49 50
498
ASUS46 KPDT 091004
RWRPDT
PENDLETON REGIONAL WEATHER ROUNDUP
NATIONAL WEATHER SERVICE PENDLETON OREGON
200 AM PST TUE FEB 9 2016

NOTE: FAIR INDICATES FEW OR NO CLOUDS BELOW 12,000 FEET WITH NO
SIGNIFICANT WEATHER AND/OR OBSTRUCTIONS TO VISIBILITY.

# INDICATES UNOFFICIAL STATION AND DATA

WAZ520-091110-
EAST SLOPES OF WASHINGTON CASCADES

CITY            SKY/WX      TMP DP  RH  WIND    PRES   REMARKS
#CLE ELUM HS    N/A         26  24  92  CALM    30.42F
#CLE ELUM 2NW   N/A         24  24  100 CALM    N/A
#CLE ELUM LAKE  N/A         33  31  92  E1      30.52F
#CLIFFDEL 2NW   N/A         28  27  96  NW2     N/A
#GLENWOOD       N/A         25  24  96  CALM    30.55S
#MANASTASH CYN  N/A         29  25  85  CALM    30.41F
#NELSON         N/A         N/A N/A N/A CALM    30.47S
#NELSON 3SW     N/A         29  28  96  CALM    30.76F
#NILE           N/A         25  24  96  CALM    29.83S
#PEOH POINT     N/A         34  31  89  E5      N/A
#RONALD 2NW     N/A         32  N/A N/A CALM    30.29F
#SNOWDEN        N/A         30  20  66  CALM    N/A
#TEANAWAY 4NE   N/A         27  26  96  CALM    N/A
#TROUT LAKE 1NE N/A         29  28  96  CALM    30.54S
#TROUT LAKE 1E  N/A         27  26  96  CALM    30.42F
$$

WAZ521-091110-
SIMCOE HIGHLANDS

CITY            SKY/WX      TMP DP  RH  WIND    PRES   REMARKS
#BICKLETON HS   N/A         34  28  78  CALM    N/A
#CENTERVILLE 1SWN/A         29  26  88  CALM    30.50R
#GOLDENDALE     N/A         31  29  92  CALM    N/A
#GOLDENDALE 1NE N/A         30  25  81  N3      N/A
#GOODNOE HILLS  N/A         38  31  76  CALM    30.38R
#LYLE 6NE       N/A         38  34  85  CALM    30.48F
$$

WAZ026-091110-
KITTITAS VALLEY

CITY            SKY/WX      TMP DP  RH  WIND    PRES   REMARKS
ELLENSBURG AP   CLEAR       25  22  88  CALM    30.50F FOG
#ELLENSBURG CWU N/A         24  22  92  CALM    30.54S
#ELLENSBURG 3NE N/A         24  23  96  CALM    30.48F
#ELLENSBURG     N/A         25  25  100 CALM    N/A
#ELLENSBURG 1E  N/A         22  N/A N/A CALM    N/A
#KITTITAS 4N    N/A         25  21  84  CALM    30.52S
#KITTITAS 3S    N/A         15  13  92  CALM    30.62S
#THORP 6N       N/A         32  30  92  CALM    30.58F
$$

WAZ027-091110-
YAKIMA VALLEY

CITY            SKY/WX      TMP DP  RH  WIND    PRES   REMARKS
YAKIMA AIRPORT  CLEAR       32  27  82  W8      30.51F
#DONALD 2NE     N/A         37  23  56  NW2     29.33F
#GRANDVIEW      N/A         29  26  88  CALM    30.56S
#MABTON         N/A         31  29  92  CALM    30.52S
#MOXEE 2E       N/A         31  29  92  CALM    30.49F
#NACHES 2SW     N/A         34  31  89  W1      30.49F
#SELAH 8E       N/A         31  30  96  SE6     N/A
#TERRACE HTS    N/A         29  27  92  CALM    30.52F
#TOPPENISH      N/A         35  32  89  CALM    30.45F
#WEST VALLEY    N/A         31  28  88  CALM    30.54F
#W YAKIMA       N/A         34  30  85  NW3     30.55F
#WHITE SWAN 5E  N/A         30  28  92  CALM    30.55F
#WILEY CITY 3W  N/A         31  25  78  CALM    30.47S
$$

WAZ028-091110-
LOWER COLUMBIA BASIN...WASHINGTON

CITY            SKY/WX      TMP DP  RH  WIND    PRES   REMARKS
HANFORD         CLEAR       38  30  73  W12     30.51S WCI 30
PASCO           CLEAR       29  26  88  CALM    30.54S
PROSSER AWOS    N/A         28  27  96  W2      30.55S
RICHLAND AWOS   CLEAR       30  30  100 CALM    30.54S
#BENTON CITY    N/A         33  30  89  W2      30.45S
#CONNELL 5N     N/A         32  31  96  NW5     30.53S
#ELTOPIA 6NW    N/A         35  32  89  CALM    29.45F
#KAHLOTUS       N/A         32  30  92  CALM    30.52F
#KENNEWICK 3S   N/A         36  31  82  CALM    30.54S
#PATERSON       N/A         35  33  92  CALM    30.52S
#PROSSER        N/A         38  32  79  N3      30.54S
#SAGEMOOR 2W    N/A         34  30  85  CALM    30.38S
#TOUCHET 2S     N/A         26  23  88  CALM    30.53S
#WEST PASCO     N/A         31  27  85  CALM    30.57S
$$

WAZ029-091110-
FOOTHILLS OF THE BLUES...WASHINGTON

CITY            SKY/WX      TMP DP  RH  WIND    PRES   REMARKS
WALLA WALLA AP  CLEAR       35  32  89  S7      30.49S
#CLYDE 6NW      N/A         29  28  96  CALM    30.53S
#DAYTON SCHOOL  N/A         31  26  81  CALM    30.47F
#LOWDEN 2SE     N/A         28  27  96  CALM    30.49S
#PLEASANT VIEW 1N/A         37  34  89  SW1     30.55S
#PRESCOTT       N/A         32  31  96  CALM    30.52S
#WHITMAN COLLEGEN/A         36  33  89  N2      30.58S
#WAITSBURG 5S   N/A         36  34  92  CALM    30.62S
#WAITSBURG 8N   N/A         27  13  55  CALM    30.36R
#WALLA WALLA U  N/A         33  31  92  CALM    30.54
#WHITMAN MISSIONN/A         30  28  92  CALM    30.55S
$$

WAZ030-091110-
BLUE MOUNTAINS...WASHINGTON

CITY            SKY/WX      TMP DP  RH  WIND    PRES   REMARKS
#DIXIE 5SE      N/A         44  36  73  SW1     30.37S
#SKI BLUEWOOD   N/A         33  31  92  SW2     30.46F
$$

ORZ009-041-WAZ024-091110-
COLUMBIA RIVER GORGE

CITY            SKY/WX      TMP DP  RH  WIND    PRES   REMARKS
HOOD RIVER AP   CLEAR       32  32  100 CALM    30.50S
THE DALLES AP   CLEAR       33  30  89  E6      30.52F
#ARLINGTON AIRPON/A         35  32  89  CALM    30.54S
#ARLINGTON HS   N/A          0   0  100 CALM    30.43F
#LYLE           N/A         38  35  89  CALM    30.54F
#MARYHILL 2W    N/A         36  36  100 CALM    N/A
#MOSIER 1S      N/A         34  28  78  CALM    30.49S
#MURDOCK        N/A         35  33  92  CALM    30.58S

$$

ORZ510-091110-
NORTH CENTRAL OREGON

CITY            SKY/WX      TMP DP  RH  WIND    PRES   REMARKS
#CHENOWITH 1W   N/A         35  34  96  E8      N/A
#COW CYN RST AREN/A         36  34  92  N3      N/A
#DUFUR 9E       N/A         37  33  85  E13     30.55F WCI 29
#GRASS VALLEY 1SN/A         33  30  89  E3      30.52F
#MAUPIN SCHOOL  N/A         34  30  85  CALM    30.52S
#MORO SCHOOL    N/A         30  29  96  CALM    30.47S
#SHANIKO 4NW    N/A         35  34  96  E5      30.41F
#TYGH VALLEY 2NEN/A         32  29  89  CALM    30.52S
#WAPANITIA AIRPON/A         32  30  92  NW1     30.54F
#WASCO 5NE      N/A         29  27  92  CALM    30.53S
$$

ORZ511-091110-
CENTRAL OREGON

CITY            SKY/WX      TMP DP  RH  WIND    PRES   REMARKS
BEND AIRPORT    CLEAR       34  32  92  S3      30.42S
MADRAS AIRPORT  CLEAR       28  28  100 CALM    30.46S FOG
PRINEVILLE AP   CLEAR       41  32  70  SE8     30.42F
REDMOND AIRPORT CLEAR       31  29  92  CALM    30.42S
#ASHWOOD SCHOOL N/A         30  29  96  CALM    30.38S
#BEND 6E        N/A         34  28  78  CALM    30.38R
#BEND 1SW       N/A         30  28  92  N1      N/A
#BEND-KIM LN    N/A         35  32  89  CALM    30.39R
#LAKE BILLY CHINN/A         35  N/A N/A CALM    30.52R
#MADRAS         N/A         33  33  100 CALM    N/A
#POWELL BUTTE 3EN/A         40  32  73  SE3     N/A
#PRINEVILLE 3N  N/A         30  28  92  CALM    30.44F
#WARM SPRINGS   N/A         32  30  92  CALM    30.42S

$$


ORZ509-091110-
EAST SLOPES OF OREGON CASCADES

CITY            SKY/WX      TMP DP  RH  WIND    PRES   REMARKS
SISTERS AWOS    N/A         27  25  92  CALM    30.35F
#BLUE BOX PASS  N/A         38  N/A N/A CALM    N/A
#BLACK BUTTE RNCN/A         30  29  96  CALM    30.48F
#CAMP SHERMAN   N/A         27  24  88  CALM    30.52F
#LA PINE DOT    N/A         27  25  92  W1      N/A
#LA PINE 4NW    N/A         25  22  88  CALM    30.52F
#SISTERS AIRPOR N/A         26  26  100 CALM    30.17S
#SISTERS ODOT   N/A         27  N/A N/A CALM    N/A
#SISTERS 3N     N/A         26  20  78  CALM    30.38S
#SUNRIVER       N/A         27  26  96  CALM    30.50S
#SUTTLE LK DOT  N/A         25  25  100 SW22G31 N/A    WCI 10
#TUMALO 3W      N/A         39  35  85  CALM    30.30S
#WANOGA BUTTE D N/A         47  22  37  CALM    N/A

$$

ORZ044-091110-
LOWER COLUMBIA BASIN...OREGON

CITY            SKY/WX      TMP DP  RH  WIND    PRES   REMARKS
HERMISTON       CLEAR       31  28  88  S6      30.51S
#BOARDMAN SCHOOLN/A         28  26  92  SE1     30.54R
#BOARDMAN 8SW   N/A         34  32  92  CALM    30.53S
#ECHO 8SW       N/A         31  26  81  SW1     30.52R
#I-84 EX 198 DOTN/A         38  35  89  N6      N/A
#IONE SCHOOL    N/A         29  17  60  CALM    30.46S
#IRRIGON 4NW    N/A         30  30  100 CALM    N/A
#UMATILLA SCHOOLN/A         26  26  100 CALM    30.56F
#UMATILLA       N/A         33  29  85  CALM    30.47S
$$

ORZ507-091110-
NORTHERN FOOTHILLS OF THE BLUES

CITY            SKY/WX      TMP DP  RH  WIND    PRES   REMARKS
PENDLETON AIRPT CLEAR       30  28  92  E3      30.48S
#ADAMS 3WNW     N/A         29  27  92  CALM    30.54R
#ATHENA         N/A         30  28  92  CALM    30.56R
#CAYUSE         N/A         34  32  92  CALM    30.53R
#HELIX SCHOOL   N/A         32  30  92  N1      30.53S
#HELIX 3N       N/A         33  30  89  N2      30.41S
#HOLDMAN 5SE    N/A         32  30  92  CALM    30.46R
#HOLDMAN 6E     N/A         33  30  89  CALM    30.33S
#M-F GROVE ELEM N/A         32  28  85  CALM    30.47S
#M-FREEWATER 5SEN/A         31  29  92  CALM    30.47S
#PENDLETON DNTN N/A         30  22  72  CALM    30.52S
#PDT AQUATIC CTRN/A         30  22  72  CALM    30.49S
#PDT SUNRIDGE   N/A         27  25  92  CALM    30.51S
#PENDLETON 7NW  N/A         30  26  85  CALM    27.16F
#PILOT ROCK     N/A         31  24  75  CALM    30.46F
#TUTUILLA       N/A         30  28  92  CALM    30.53S
#UMAPINE 2E     N/A         29  27  92  CALM    30.48S
#WESTON SCHOOL  N/A         33  28  82  CALM    30.42S

$$

ORZ508-091110-
SOUTHERN FOOTHILLS OF THE BLUES

CITY            SKY/WX      TMP DP  RH  WIND    PRES   REMARKS
LEXINGTON       CLEAR       32  30  92  CALM    30.51S
#CONDON SCHOOL  N/A         35  33  92  N6      30.36F
#CONDON 5W      N/A         34  31  89  NE12    30.40S WCI 25
#FOSSIL SCHOOL  N/A         28  26  92  CALM    30.36R
#HEPPNER EOC    N/A         33  31  92  E1      30.45S
#HEPPNER 4NE    N/A         36  33  89  NE5     30.50S
#LEXINGTON 2SE  N/A         30  27  88  S3      30.44R
#MIKKALO        N/A         34  31  89  E6      30.55F
#OLEX 4N        N/A         33  31  92  CALM    30.46S
#RUGGS 5NE      N/A         33  32  96  CALM    30.59S
#RUGGS 2SW      N/A         31  29  92  CALM    30.53S

$$

ORZ502-503-091110-
BLUE MOUNTAINS

CITY            SKY/WX      TMP DP  RH  WIND    PRES   REMARKS
MEACHAM         CLEAR       38  29  70  CALM    30.46S
#HEPPNER 15SE   N/A         36  28  72  N5      30.30S
#LONG CREEK HS  N/A         35  34  96  CALM    N/A
#PIKES PEAK     N/A         48  35  60  CALM    27.99S
#TOLLGATE       N/A         33  29  85  NE2     30.28S
#TROY SCHOOL    N/A         33  30  89  CALM    30.47S
#UKIAH          N/A         25  24  96  CALM    30.50S
#WESTON 4E      N/A         43  32  65  E5      30.42S
$$

ORZ505-091110-
JOHN DAY BASIN

CITY            SKY/WX      TMP DP  RH  WIND    PRES   REMARKS
JOHN DAY        CLEAR       39  32  76  E10     30.47S
#MITCHELL       N/A         32  31  96  CALM    30.57R
#MITCHELL 8NW   N/A         40  36  85  CALM    30.63R
#MONUMENT HS    N/A         33  29  85  CALM    30.37S
#MT. VERNON 5SE N/A         50  30  46  E5      30.41R
#SPRAY SCHOOL   N/A         31  N/A N/A CALM    N/A
#WINLOCK        N/A         39  30  70  CALM    30.38R
$$

ORZ506-091110-
OCHOCO AND JOHN DAY HIGHLANDS

CITY            SKY/WX      TMP DP  RH  WIND    PRES   REMARKS
#BUCK CREEK DOT N/A         34  34  100 SE10    N/A
#HORSE RIDGE DO N/A         40  31  70  SE2     N/A
#KEYES SMT DOT  N/A         39  29  67  CALM    N/A
#PAULINA SCHOOL N/A         55  36  49  CALM    30.38F
#PINE MTN OBS   N/A         42  30  62  S15G25  N/A    WCI 34
#PRAIRIE CITY   N/A         26  21  81  CALM    30.45F
#SENECA         N/A         15  N/A N/A CALM    N/A
#SENECA 9NW     N/A         21  19  92  CALM    30.65S
$$

ORZ049-091110-
GRANDE RONDE VALLEY

CITY            SKY/WX      TMP DP  RH  WIND    PRES   REMARKS
LA GRANDE       CLEAR       34  27  75  NW5     30.52S
#COVE           N/A         29  28  96  S2      30.53F
#COVE SCHOOL    N/A         29  27  92  CALM    30.51F
#COVE 6NW       N/A         35  31  85  SE5     30.43F
#ELGIN 3N       N/A         27  20  74  CALM    30.49S
#ELGIN 1E       N/A         30  26  85  CALM    N/A
#IMBLER SCHOOL  N/A         36  30  79  E3      30.46F
#ISLAND CITY 4N N/A         43  42  96  CALM    30.24F
#UNION 1S       N/A         35  31  85  E16G25  30.53S WCI 25
$$

ORZ050-091110-
WALLOWA COUNTY

CITY            SKY/WX      TMP DP  RH  WIND    PRES   REMARKS
#ENTERPRISE AP  N/A         27  24  88  CALM    30.40F
#ENTERPRISE HS  N/A         24  22  92  CALM    30.49S
#IMNAHA SCHOOL  N/A         36  32  85  S2      30.50S
#JOSEPH 3N      N/A         24  19  81  CALM    30.48F
#JOSEPH 3W      N/A         N/A N/A N/A CALM    30.27F
#LOSTINE        N/A         21  20  96  CALM    30.47F
#MT HOWARD 8000 N/A         45  17  32  CALM    30.58F
#PROMISE 1S     N/A         31  28  88  CALM    30.67R
#WALLOWA SCHOOL N/A         21  20  96  CALM    30.49S



$$



USA.gov is the U.S. government's official web portal to all federal, state and local government web resources and services.